Regional Weather Roundup
Issued by NWS Wakefield, VA

Home | Current Version | Previous Version | Text Only | Print | Product List | Glossary Off
Versions: 1 2 3 4 5 6 7 8 9 10 11 12 13 14 15 16 17 18 19 20 21 22 23 24 25 26 27 28 29 30 31 32 33 34 35 36 37 38 39 40 41 42 43 44 45 46 47 48 49 50

528
ASUS41 KAKQ 191914
RWRAKQ

REGIONAL WEATHER ROUNDUP
NATIONAL WEATHER SERVICE WAKEFIELD VA
200 PM EST SUN FEB 19 2017

Note: "fair" indicates few or no clouds below 12,000 feet with no
significant weather and/or obstructions to visibility. * = Denotes
station may not report precipitation (e.g., rain,snow,etc.),
thunder or fog.

VAZ042-051-052>054-056-192000-
NORTHERN VIRGINIA

CITY           SKY/WX    TMP DP  RH WIND       PRES   REMARKS
WASH NATIONAL  MOSUNNY   70  44  39 W15       29.91S
DULLES         MOSUNNY   67  41  38 NW12G23   29.92F
FORT BELVOIR   SUNNY     69  42  37 NW12G21   29.91S
QUANTICO       MOSUNNY   71  45  39 VRB7G28   29.92F
FREDERICKSBRG* SUNNY     71  47  42 NW9       29.91S
STAFFORD*      MOSUNNY   70  44  40 W12       29.96S
WARRENTON      SUNNY     73  37  27 SW6       29.92S
CULPEPER*      MOSUNNY   72  45  38 N8        29.93S
MANASSAS*      SUNNY     70  44  39 NW15      29.92F
LEESBURG*      SUNNY     68  46  45 W13G23    29.93S
WINCHESTER     SUNNY     63  41  45 W14G20    29.94F
FRONT ROYAL*   CLEAR     68  43  40 W9G18     29.93S
LURAY*         CLEAR     68  43  40 NW8       29.95S
$$

VAZ048-049-060>072-079>083-192000-
CENTRAL AND SOUTH CENTRAL VIRGINIA

CITY           SKY/WX    TMP DP  RH WIND       PRES   REMARKS
RICHMOND       PTSUNNY   71  45  39 NW7       29.92S
CHESTERFIELD*  MOCLDY    73  39  29 CALM      29.94S
PETERSBURG*    MOSUNNY   69  45  41 W7        29.94R
HANOVER        PTSUNNY   72  44  36 CALM      29.93S
TAPPAHANNOCK*  PTSUNNY   69  32  25 N7        29.92S
QUINTON*       CLOUDY    69  45  41 NW7       29.91S
CHARLOTTSVILLE MOSUNNY   72  42  34 VRB6G16   29.93F
GORDONSVILLE*  PTCLDY    71  44  37 NW7G16    29.93R
ORANGE*        SUNNY     72  43  35 NW6       29.93F
LOUISA*          N/A     75  46  35 W3G9      29.91S
BUMPASS*       FAIR      71  46  40 W6        29.92S
FARMVILLE*     PTSUNNY   71  44  38 CALM      29.94R
CREWE*         FAIR      71  45  39 NW7       29.94S
FORT PICKETT*  FAIR     N/A N/A N/A W5        29.94S
CHASE CITY*    FAIR      68  40  35 CALM      29.96R
CLARKSVILLE*   FAIR      70  43  37 W7        29.96R
SOUTH HILL*    SUNNY     70  45  40 N3        30.00S
LAWRENCEVILLE* FAIR      71  44  38 NW3       29.94R
EMPORIA*       SUNNY     72  45  37 NW3       29.94R
$$

VAZ088>098-192000-
SOUTHEAST VIRGINIA

CITY           SKY/WX    TMP DP  RH WIND       PRES   REMARKS
NORFOLK        SUNNY     66  44  45 NE7       29.91S
VIRGINIA BEACH MOSUNNY   68  42  38 N14       29.90S
NORFOLK NAVAL  MOSUNNY   70  42  36 NE10      29.92S
WEST POINT*    PTSUNNY   72  42  33 NE3       29.92S
SALUDA*        CLOUDY    67  47  50 NW6       29.91R
NEWPORT NEWS   SUNNY     73  45  36 VRB3      29.90S
LANGLEY AFB    MOSUNNY   69  46  43 NE10      29.90R
FORT EUSTIS    SUNNY     74  46  36 NW6       29.88S
WILLIAMSBURG*  SUNNY     79  48  34 N8        29.90F
HR EXEC AP*    FAIR      72  45  37 N9        29.88F
FRANKLIN*      MOSUNNY   72  46  38 W7        29.91S
US460-WAKEFLD  SUNNY     73  45  36 N6        29.91S
$$

VAZ020-022-025-037-045-192000-
WEST CENTRAL AND SOUTHWEST VIRGINIA

CITY           SKY/WX    TMP DP  RH WIND       PRES   REMARKS
STAUNTON*      SUNNY     67  43  41 NW8       29.98S
WAYNESBORO*    PTCLDY    67  39  35 NW8       29.97S
HOT SPRINGS VA MOSUNNY   52  36  54 W12G20    30.04S
LYNCHBURG      SUNNY     68  41  37 VRB6      29.98S
DANVILLE       SUNNY     67  44  43 VRB5      29.99S
SOUTH BOSTON*  FAIR      67  40  37 CALM      29.97S
MARTINSVILLE   SUNNY     66  42  41 N5        30.02F
ROANOKE        MOSUNNY   65  42  43 NW13      30.04R
BLACKSBURG     MOSUNNY   58  44  59 W8        30.08S
DUBLIN*        PTSUNNY   56  43  61 N7        30.08S
MARION*        CLOUDY    55  44  66 W10G18    30.11S
HILLSVILLE*    SUNNY     55  43  63 NW16      30.04S
RICHLANDS*     CLOUDY    49  44  81 CALM      30.10F
WISE*          PTSUNNY   57  41  54 CALM      30.11S
ABINGDON*      CLOUDY    54  47  78 W5        30.11S
$$

MDZ021>025-VAZ099-100-192000-
SOUTHERN MARYLAND AND THE DELMARVA PENINSULA

CITY           SKY/WX    TMP DP  RH WIND       PRES   REMARKS
PATUXENT RIVER MOSUNNY   69  48  47 NW9       29.89S
BAY BRIDGE APT SUNNY     68  43  40 NW5       29.88F
LEONARDTOWN    SUNNY     68  41  37 W7        29.91S
DOVER          MOSUNNY   69  46  43 NW10      29.84S
GEORGETOWN     SUNNY     69  42  37 VRB5      29.86F
EASTON         NOT AVBL
CAMBRIDGE      SUNNY     64  43  45 NW8       29.89R
SALISBURY      SUNNY     68  44  42 MISG      29.87F
OCEAN CITY     CLOUDY    66  43  43 VRB6      29.87S
WALLOPS ISLAND CLOUDY    65  45  48 NW9       29.89S
ACCOMACK*      CLOUDY    64  46  52 NW13G18   29.89S
$$

NCZ012>017-030>032-192000-
NORTH CENTRAL AND EASTERN NORTH CAROLINA

CITY           SKY/WX    TMP DP  RH WIND       PRES   REMARKS
ROANOKE RAPIDS FAIR      70  46  43 N7        29.93S
RALEIGH        MOSUNNY   71  42  35 VRB7      29.97S
ELIZABETH CITY SUNNY     71  44  37 N5        29.90F
AHOSKIE*         N/A     69  45  42 N5        29.92F
EDENTON*       SUNNY     72  46  39 N7        29.91S
CURRITUCK*     SUNNY     70  43  37 NE7       29.90F
KILL DEVIL HLS NOT AVBL
MANTEO         SUNNY     64  45  48 NW5       29.90F
CAPE HATTERAS  SUNNY     63  47  55 W7        29.91S HAZE
TARBORO*       NOT AVBL
GOLDSBORO      SUNNY     71  41  33 NW12G17   29.92S
WASHINGTON     SUNNY     72  44  36 NW9       29.91S
GREENVILLE     SUNNY     75  43  31 N9        29.95R
NEW BERN       SUNNY     73  45  36 NW8       29.92F
WILMINGTON     SUNNY     72  46  39 W15       29.93S
$$

VAZ048-192000-
ELSEWHERE

CITY           SKY/WX    TMP DP  RH WIND       PRES   REMARKS
HARRISBURG PA  MOSUNNY   67  38  34 W14       29.86S
BALTIMORE      MOSUNNY   69  42  37 W12G21    29.88S
ANNAPOLIS      SUNNY     65  41  41 NW12      29.87S
ANDREWS AFB    SUNNY     69  43  39 NW13      29.89S
PHILADELPHIA   MOSUNNY   68  39  34 W12G24    29.84S
HENDERSON NC   SUNNY     66  40  38 W3        29.96S
GREENSBORO     MOSUNNY   68  44  42 NW10      29.99S
ROCKY MOUNT    SUNNY     71  43  36 NW9       29.93F
$$

VAZ100-192000-
MARINE

STATION/POSITION TIME  TEMP    WIND        PRES    WAVE   SWELL
                       AIR SEA DIR/SP/G            HT/PER HT/PER
                 (UTC) (F)     (DEG/KT/KT) (MB)    (FT/S) (FT/S)
CAPE MAY NJ      1848   58 41  320/  2/  6 1010.7F
LEWES DE         1848   58 40  360/  4/  4 1010.9F
OCEAN-CITY-INLET 1848   62 42  290/  6/  7 1011.6F
WACHAPREAGUE VA  1848   64 47  310/  4/ 14 1012.0R
THOMAS POINT MD  1900   66 41  290/ 10/ 12   N/A
GOOSES REEF MD   1850   51     180/  4/  6 1012.9F
COVE POINT MD    1848   57      CALM  /  1 1012.9R
SOLOMONS ISLAND  1848   66 42  330/  8/ 11   N/A
BISHOPS HEAD MD  1848   49 47  250/  9/ 10 1012.3F
PINEY POINT MD   1848          310/ 14/ 15   N/A
POTOMAC MD       1850   53     290/  4/  6 1011.6F
CAMBRIDGE MD     1848   63 40  310/  8/ 11 1011.5S
LEWISETTA VA     1848   65 44  300/  6/  9 1012.1F
RAPPAHANNOCK LGT 1848          330/ 15/ 16 1012.9F
YORK RVR RNG VA  1848   63      90/  3/  4 1011.8S
YORKTOWN VA      1848   64 44  310/  5/  6 1012.1S
JAMESTOWN VA     1850   63     280/  8/ 10   N/A
DOMINION TERM VA 1848   63     130/  4/  4 1012.8R
KIPTOPEKE VA     1848      46  320/ 11/ 13   N/A
CHES BAY BRIDGE  1848   57 45   CALM  /  2 1012.8F
CAPE HENRY VA    1848   59     320/  9/ 12   N/A
WILLOUBY STN VA  1848   58      60/  2/  3 1013.8R
S CRANEY ISL VA  1848   63      10/  5/  6 1012.4F
CAPE HENRY BUOY  1842      48                N/A     2/ 5
OFFSHORE WE BUOY 1851      48                N/A     2/ 5
64NM E OF VA BCH 1850   53 52  260/  8/ 10 1011.8F   2/ 5   2/ 5
DUCK PIER NC     1848   65 47   CALM  /  1 1012.1F
44100 DUCK FRF   1805      49                N/A     1/ 6
44056 DUCK FRF   1830      51                N/A     1/10
OREGON INLET NC  1842   64 51  320/  4/  6 1012.6F
HATTERAS NC      1848   56 56  290/  7/  8 1012.5R
DIAMOND SHLS NC  1850   59 67  290/  8/ 10 1012.3F   2/ 8   2/ 8
CAPE LOOKOUT NC  1800   61     250/  8/ 11 1012.3F
$$




USA.gov is the U.S. government's official web portal to all federal, state and local government web resources and services.